STARLINK-35971, 66895

Orbit data source: Space-Track

STARLINK-35971, 66895 is a payload satellite owned by SpaceX/Seattle (US) in LEO that was launched on Thu, 04 Dec 2025 UTC via an FALCON 9 launch vehicle from the Air Force Western Test Range (AFWTR). Payload-class satellites include a variety of spacecraft equipped with specific instruments for various scientific and technological missions. These include communications satellites like Starlink; space stations such as the ISS; scientific satellites like the Hubble; Earth observation satellites from companies like Planet Labs, Umbra, and HawkEye 360; GPS; miniature CubeSats for education and research; and military/defense satellites.

Loading next visibility...
Identifier
66895, 2025-283T
Orbit
LEO
Country
Flag of USUS
Related business
Manufacturer
SpaceX/Seattle
Mission
Operational Commercial Communications
Bus & Motor
STARLINK V2MO, Unknown motor
Mass
575 kg wet, ~530 kg dry
Launch date (UTC)
2025-12-04 (7 months ago)
Launch vehicle
FALCON 9
Launch site
Air Force Western Test Range (AFWTR)
Object type
Payload
Rocket body
Debris
Shape & HBR
Box + 2 Pan, 17.7 m
Radar Cross Section
36.964 m², Large (>1 m²)

Expand to show TLE details & history
Last TLE update: 1 day ago

TLE from 1 day ago
0 STARLINK-35971
1 66895U 25283T   26170.55267975  .00028186  00000-0  84179-3 0  9993
2 66895  53.1589 270.0484 0000949  93.1796 266.9315 15.34415829 31456
Epoch: 2026-06-19T13:15Z
TLE epoch observation values (Epoch: 2026-06-19T13:15:51.530Z)
Latitude
-0.00003°
Longitude
163.30366°
Altitude
463.592 km
Speed
7.636 km/s
True Right ascension
18h 00m 11s
True Declination
0° 00' 00"
Sunlit
Object was in full shadow at epoch
Visualization orbit readout
Latitude
Unknown
Longitude
Unknown
Altitude
Unknown
Speed
Unknown
Apparent Right ascension
Unknown
Apparent Declination
Unknown
Sunlit
N/A
Visualization observer readout
Local Sidereal Time
07:13:25
Azimuth
Unknown
Elevation
Unknown
Doppler factor
Unknown
Orbital elements
Apogee altitude
463.562 km
Perigee altitude
462.264 km
Semi-major axis
6,841.05 km
Eccentricity
0.00009
Inclination
53.1589°
RAAN
270.0484°
Arg. of periapsis
93.1796°
True anomaly
266.92064°
Mean anomaly
266.9315°
Eccentric anomaly
266.92607°
Mean motion
3.83583 °/min
Orbital period
93.85 mins
BSTAR
0.00084179
Loading maneuver chart data...
Computing Atmospheric mass density...
Loading historical data...
Loading historical data...
Loading historical data...
Loading historical data...
Loading historical data...
Loading historical data...
Loading historical data...

Documentation

Showing up to 5 results
|